PROPCUBE 1 (FLORA)

Last updated on Wed Nov 05 2025 00:03:48 GMT+0000 (Coordinated Universal Time)

1 40976U 15058N 25308.32460946 .00002473 00000+0 24146-3 0 9992 2 40976 64.7742 271.3627 0141432 148.2219 212.7526 14.87630082 82798
UTC large
Height (km)
Speed (km/s)
/
Latitude / Longitude
Inclination (degrees)
Orbital Period (minutes)
Azimuth
Elevation
Range (km)
Doppler Factor

Next 0 passes for location: London (51.5072 / 0.1276)

Sorry there are no passes over London.